When you browse on this site, cookies collect data to enhance your experience and personalize the content and advertising you see.
Visit our Privacy Policy to learn more. By continuing to use the site, you agree to this use of cookies and data.
  • In Austria
  • List of Countries
  • For 7 days
  • Water Temperature
  • Weather Map
  • News
  • Weather Widgets
  • user-avatar
    Login

    Hourly Weather Barra

    Today, 28 January, Tuesday

    Time Temperature Precipitation Wind Pressure Humidity
    00:00 +26°C° 0 mm 5 mps 758 mmHg 22%
    01:00 +25°C° 0 mm 4 mps 758 mmHg 23%
    02:00 +25°C° 0 mm 4 mps 758 mmHg 23%
    03:00 +23°C° 0 mm 4 mps 757 mmHg 22%
    04:00 +23°C° 0 mm 4 mps 757 mmHg 21%
    05:00 +23°C° 0 mm 4 mps 757 mmHg 22%
    06:00 +25°C° 0 mm 4 mps 758 mmHg 19%
    07:00 +26°C° 0 mm 4 mps 758 mmHg 17%
    08:00 +27°C° 0 mm 3 mps 759 mmHg 15%
    09:00 +30°C° 0 mm 3 mps 759 mmHg 13%
    10:00 +34°C° 0 mm 2 mps 759 mmHg 12%
    11:00 +37°C° 0 mm 2 mps 759 mmHg 11%
    12:00 +38°C° 0 mm 2 mps 758 mmHg 10%
    13:00 +39°C° 0 mm 3 mps 757 mmHg 10%
    14:00 +40°C° 0 mm 3 mps 757 mmHg 10%
    15:00 +40°C° 0 mm 4 mps 756 mmHg 12%
    16:00 +37°C° 0 mm 4 mps 756 mmHg 15%
    17:00 +36°C° 0 mm 5 mps 756 mmHg 17%
    18:00 +33°C° 0 mm 5 mps 757 mmHg 26%
    19:00 +28°C° 0 mm 4 mps 757 mmHg 34%
    20:00 +25°C° 0 mm 4 mps 758 mmHg 43%
    21:00 +25°C° 0 mm 3 mps 758 mmHg 46%
    22:00 +25°C° 0 mm 3 mps 758 mmHg 48%
    23:00 +24°C° 0 mm 3 mps 759 mmHg 51%

    Tomorrow, 29 January, Wednesday

    Time Temperature Precipitation Wind Pressure Humidity
    00:00 +24°C° 0 mm 3 mps 758 mmHg 50%
    01:00 +23°C° 0 mm 4 mps 758 mmHg 50%
    02:00 +23°C° 0 mm 4 mps 758 mmHg 50%
    03:00 +22°C° 0 mm 3 mps 758 mmHg 51%
    04:00 +22°C° 0 mm 3 mps 758 mmHg 52%
    05:00 +21°C° 0 mm 2 mps 758 mmHg 54%
    06:00 +23°C° 0 mm 2 mps 758 mmHg 49%
    07:00 +24°C° 0 mm 2 mps 759 mmHg 44%
    08:00 +26°C° 0 mm 2 mps 759 mmHg 39%
    09:00 +29°C° 0 mm 1 mps 759 mmHg 31%
    10:00 +32°C° 0 mm 1 mps 759 mmHg 24%
    11:00 +35°C° 0 mm 1 mps 759 mmHg 16%
    12:00 +38°C° 0 mm 2 mps 758 mmHg 14%
    13:00 +39°C° 0 mm 3 mps 757 mmHg 13%
    14:00 +41°C° 0 mm 4 mps 756 mmHg 11%
    15:00 +38°C° 0 mm 4 mps 756 mmHg 16%
    16:00 +36°C° 0 mm 4 mps 756 mmHg 21%
    17:00 +34°C° 0 mm 4 mps 756 mmHg 26%
    18:00 +30°C° 0 mm 4 mps 757 mmHg 38%
    19:00 +27°C° 0 mm 4 mps 758 mmHg 49%
    20:00 +23°C° 0 mm 4 mps 758 mmHg 61%
    21:00 +24°C° 0 mm 3 mps 759 mmHg 62%
    22:00 +24°C° 0 mm 3 mps 759 mmHg 63%
    23:00 +23°C° 0 mm 2 mps 759 mmHg 64%

    Day after tomorrow, 30 January, Thursday

    Time Temperature Precipitation Wind Pressure Humidity
    00:00 +23°C° 0 mm 2 mps 759 mmHg 62%
    01:00 +23°C° 0 mm 2 mps 759 mmHg 60%
    02:00 +23°C° 0 mm 2 mps 758 mmHg 58%
    03:00 +23°C° 0 mm 1 mps 758 mmHg 57%
    04:00 +22°C° 0 mm 1 mps 758 mmHg 56%
    05:00 +22°C° 0 mm 1 mps 758 mmHg 56%
    06:00 +23°C° 0 mm 2 mps 759 mmHg 48%
    07:00 +25°C° 0 mm 2 mps 759 mmHg 40%
    08:00 +26°C° 0 mm 3 mps 760 mmHg 32%
    09:00 +29°C° 0 mm 3 mps 760 mmHg 24%
    10:00 +33°C° 0 mm 4 mps 759 mmHg 17%
    11:00 +37°C° 0 mm 5 mps 759 mmHg 10%
    12:00 +38°C° 0 mm 4 mps 759 mmHg 9%
    13:00 +41°C° 0 mm 4 mps 758 mmHg 8%
    14:00 +43°C° 0 mm 4 mps 757 mmHg 7%
    15:00 +42°C° 0 mm 4 mps 757 mmHg 7%
    16:00 +42°C° 0 mm 4 mps 757 mmHg 7%
    17:00 +42°C° 0 mm 3 mps 757 mmHg 7%
    18:00 +37°C° 0 mm 3 mps 757 mmHg 12%
    19:00 +33°C° 0 mm 3 mps 758 mmHg 17%
    20:00 +28°C° 0 mm 3 mps 758 mmHg 22%
    21:00 +27°C° 0 mm 2 mps 759 mmHg 26%
    22:00 +26°C° 0 mm 2 mps 759 mmHg 30%
    23:00 +25°C° 0 mm 2 mps 759 mmHg 34%

    31 January, Friday

    Time Temperature Precipitation Wind Pressure Humidity
    00:00 +25°C° 0 mm 2 mps 759 mmHg 31%
    01:00 +25°C° 0 mm 2 mps 758 mmHg 28%
    02:00 +25°C° 0 mm 2 mps 758 mmHg 25%
    03:00 +25°C° 0 mm 3 mps 758 mmHg 23%
    04:00 +25°C° 0 mm 4 mps 758 mmHg 21%
    05:00 +23°C° 0 mm 5 mps 758 mmHg 20%
    06:00 +26°C° 0 mm 6 mps 758 mmHg 18%
    07:00 +27°C° 0 mm 6 mps 759 mmHg 17%
    08:00 +29°C° 0 mm 7 mps 759 mmHg 16%
    09:00 +33°C° 0 mm 8 mps 759 mmHg 14%
    10:00 +37°C° 0 mm 8 mps 759 mmHg 12%
    11:00 +40°C° 0 mm 8 mps 759 mmHg 10%
    12:00 +41°C° 0 mm 7 mps 758 mmHg 9%
    13:00 +43°C° 0 mm 7 mps 757 mmHg 9%
    14:00 +44°C° 0 mm 6 mps 756 mmHg 8%
    15:00 +44°C° 0 mm 6 mps 756 mmHg 8%
    16:00 +43°C° 0 mm 5 mps 756 mmHg 8%
    17:00 +42°C° 0 mm 5 mps 755 mmHg 9%
    18:00 +39°C° 0 mm 5 mps 756 mmHg 10%
    19:00 +35°C° 0 mm 5 mps 757 mmHg 12%
    20:00 +32°C° 0 mm 5 mps 757 mmHg 14%
    21:00 +30°C° 0 mm 5 mps 758 mmHg 18%
    22:00 +29°C° 0 mm 4 mps 758 mmHg 21%
    23:00 +28°C° 0 mm 3 mps 758 mmHg 25%

    1 February, Saturday

    Time Temperature Precipitation Wind Pressure Humidity
    00:00 +27°C° 0 mm 3 mps 758 mmHg 27%
    01:00 +25°C° 0 mm 3 mps 758 mmHg 29%
    02:00 +24°C° 0 mm 2 mps 758 mmHg 30%
    03:00 +24°C° 0 mm 2 mps 758 mmHg 30%
    04:00 +24°C° 0 mm 3 mps 758 mmHg 29%
    05:00 +22°C° 0 mm 3 mps 758 mmHg 28%
    06:00 +24°C° 0 mm 3 mps 758 mmHg 24%
    07:00 +26°C° 0 mm 3 mps 759 mmHg 21%
    08:00 +27°C° 0 mm 4 mps 759 mmHg 17%
    09:00 +30°C° 0 mm 4 mps 759 mmHg 15%
    10:00 +35°C° 0 mm 5 mps 759 mmHg 12%
    11:00 +39°C° 0 mm 5 mps 759 mmHg 10%
    12:00 +40°C° 0 mm 4 mps 758 mmHg 10%
    13:00 +40°C° 0 mm 3 mps 757 mmHg 9%
    14:00 +41°C° 0 mm 2 mps 756 mmHg 9%
    15:00 +41°C° 0 mm 4 mps 756 mmHg 13%
    16:00 +39°C° 0 mm 5 mps 756 mmHg 18%
    17:00 +36°C° 0 mm 7 mps 756 mmHg 22%
    18:00 +32°C° 0 mm 6 mps 757 mmHg 36%
    19:00 +28°C° 0 mm 6 mps 758 mmHg 50%
    20:00 +25°C° 0 mm 5 mps 758 mmHg 64%
    21:00 +25°C° 0 mm 5 mps 758 mmHg 62%
    22:00 +23°C° 0 mm 5 mps 759 mmHg 61%
    23:00 +23°C° 0 mm 5 mps 759 mmHg 60%

    2 February, Sunday

    Time Temperature Precipitation Wind Pressure Humidity
    00:00 +23°C° 0 mm 5 mps 759 mmHg 58%
    01:00 +23°C° 0 mm 4 mps 758 mmHg 57%
    02:00 +22°C° 0 mm 4 mps 758 mmHg 55%
    03:00 +22°C° 0 mm 4 mps 758 mmHg 57%
    04:00 +21°C° 0 mm 3 mps 758 mmHg 59%
    05:00 +21°C° 0 mm 3 mps 758 mmHg 61%
    06:00 +23°C° 0 mm 2 mps 758 mmHg 56%
    07:00 +24°C° 0 mm 2 mps 759 mmHg 51%
    08:00 +25°C° 0 mm 1 mps 759 mmHg 46%
    09:00 +28°C° 0 mm 1 mps 759 mmHg 38%
    10:00 +31°C° 0 mm 1 mps 759 mmHg 30%
    11:00 +36°C° 0 mm 2 mps 759 mmHg 22%
    12:00 +36°C° 0 mm 3 mps 758 mmHg 21%
    13:00 +37°C° 0 mm 4 mps 758 mmHg 21%
    14:00 +37°C° 0 mm 5 mps 757 mmHg 20%
    15:00 +35°C° 0 mm 5 mps 757 mmHg 25%
    16:00 +33°C° 0 mm 6 mps 757 mmHg 31%
    17:00 +30°C° 0 mm 6 mps 757 mmHg 36%
    18:00 +28°C° 0 mm 6 mps 758 mmHg 45%
    19:00 +25°C° 0 mm 5 mps 758 mmHg 53%
    20:00 +22°C° 0 mm 4 mps 759 mmHg 62%
    21:00 +22°C° 0 mm 3 mps 759 mmHg 62%
    22:00 +21°C° 0 mm 3 mps 759 mmHg 63%
    23:00 +21°C° 0 mm 2 mps 760 mmHg 63%
    Show more